| time (UTC) | temp F | wind direction | speed knots | gust knots | rain 1hr in | rain 24hr in | rain mn in | humidity % | barometer mb |
| 20260906173135 | 75 | 164 | 3.5 | 10.4 | 0.00 | 0.00 | 0.00 | 85 | 1016.9 |
| 20260906172234 | 75 | 165 | 3.5 | 8.7 | 0.00 | 0.00 | 0.00 | 86 | 1017.0 |
| 20260906171334 | 75 | 157 | 2.6 | 8.7 | 0.00 | 0.00 | 0.00 | 86 | 1017.0 |
| 20260906170435 | 75 | 160 | 2.6 | 8.7 | 0.00 | 0.00 | 0.00 | 85 | 1017.2 |
| 20260906165534 | 75 | 168 | 2.6 | 7.8 | 0.00 | 0.00 | 0.00 | 85 | 1017.2 |
| 20260906164634 | 75 | 178 | 3.5 | 12.2 | 0.00 | 0.00 | 0.00 | 85 | 1017.3 |
| 20260906163735 | 75 | 167 | 4.3 | 9.6 | 0.00 | 0.00 | 0.00 | 84 | 1017.3 |
| 20260906162834 | 76 | 169 | 4.3 | 12.2 | 0.00 | 0.00 | 0.00 | 84 | 1017.4 |
| 20260906161934 | 76 | 175 | 4.3 | 10.4 | 0.00 | 0.00 | 0.00 | 85 | 1017.5 |
| 20260906161034 | 75 | 160 | 3.5 | 10.4 | 0.00 | 0.00 | 0.00 | 85 | 1017.5 |
| 20260906160134 | 76 | 170 | 2.6 | 7.8 | 0.00 | 0.00 | 0.00 | 85 | 1017.6 |
| 20260906155234 | 76 | 172 | 1.7 | 7.8 | 0.00 | 0.00 | 0.00 | 84 | 1017.5 |
| 20260906154334 | 76 | 175 | 2.6 | 9.6 | 0.00 | 0.00 | 0.00 | 84 | 1017.5 |
| 20260906153434 | 76 | 157 | 2.6 | 8.7 | 0.00 | 0.00 | 0.00 | 85 | 1017.5 |
| 20260906152534 | 76 | 173 | 2.6 | 8.7 | 0.00 | 0.00 | 0.00 | 84 | 1017.7 |
| 20260906151634 | 76 | 166 | 3.5 | 8.7 | 0.00 | 0.00 | 0.00 | 85 | 1017.6 |
| 20260906150734 | 76 | 153 | 3.5 | 7.8 | 0.00 | 0.00 | 0.00 | 85 | 1017.5 |
| 20260906145834 | 76 | 160 | 3.5 | 10.4 | 0.00 | 0.00 | 0.00 | 85 | 1017.5 |
| 20260906144934 | 75 | 167 | 1.7 | 7.8 | 0.00 | 0.00 | 0.00 | 86 | 1017.4 |
| 20260906144034 | 75 | 175 | 2.6 | 7.8 | 0.00 | 0.00 | 0.00 | 87 | 1017.4 |
| 20260906143134 | 74 | 162 | 2.6 | 8.7 | 0.00 | 0.00 | 0.00 | 88 | 1017.3 |
| 20260906142234 | 74 | 151 | 1.7 | 7.8 | 0.00 | 0.00 | 0.00 | 89 | 1017.3 |
| 20260906140434 | 73 | 155 | 2.6 | 8.7 | 0.00 | 0.00 | 0.00 | 92 | 1017.2 |
| 20260906135534 | 72 | 156 | 2.6 | 7.0 | 0.00 | 0.00 | 0.00 | 93 | 1017.2 |
| 20260906132834 | 70 | 142 | 0.9 | 5.2 | 0.00 | 0.00 | 0.00 | 95 | 1017.1 |
| 20260906131934 | 70 | 156 | 0.9 | 3.5 | 0.00 | 0.00 | 0.00 | 95 | 1017.1 |
| 20260906131034 | 69 | 131 | 1.7 | 6.1 | 0.00 | 0.00 | 0.00 | 95 | 1017.0 |
| 20260906130134 | 69 | 126 | 0.9 | 5.2 | 0.00 | 0.00 | 0.00 | 95 | 1016.8 |
| 20260906125234 | 68 | 132 | 0.9 | 2.6 | 0.00 | 0.00 | 0.00 | 95 | 1016.8 |
| 20260906124334 | 68 | 148 | 0.9 | 3.5 | 0.00 | 0.00 | 0.00 | 95 | 1016.8 |
| 20260906123433 | 68 | 128 | 0.0 | 2.6 | 0.00 | 0.00 | 0.00 | 95 | 1016.9 |
| 20260906122534 | 68 | 122 | 0.0 | 2.6 | 0.00 | 0.00 | 0.00 | 95 | 1016.9 |
| 20260906121633 | 67 | 116 | 0.0 | 3.5 | 0.00 | 0.00 | 0.00 | 94 | 1016.8 |
| 20260906120733 | 67 | 126 | 0.0 | 0.9 | 0.00 | 0.00 | 0.00 | 94 | 1016.8 |
| 20260906115834 | 67 | 127 | 0.0 | 0.9 | 0.00 | 0.00 | 0.00 | 94 | 1016.9 |
| 20260906114933 | 67 | 127 | 0.0 | 0.9 | 0.00 | 0.00 | 0.00 | 94 | 1016.9 |
| 20260906113133 | 68 | 119 | 0.0 | 1.7 | 0.00 | 0.00 | 0.00 | 94 | 1016.7 |
| 20260906112233 | 68 | 108 | 0.0 | 3.5 | 0.00 | 0.00 | 0.00 | 94 | 1016.7 |
| 20260906111333 | 68 | 128 | 0.0 | 1.7 | 0.00 | 0.00 | 0.00 | 94 | 1016.6 |
| 20260906110433 | 68 | 157 | 0.9 | 4.3 | 0.00 | 0.00 | 0.00 | 94 | 1016.5 |
| 20260906105533 | 68 | 166 | 0.0 | 3.5 | 0.00 | 0.00 | 0.00 | 94 | 1016.6 |
| 20260906104633 | 68 | 163 | 0.9 | 3.5 | 0.00 | 0.00 | 0.00 | 94 | 1016.6 |
| 20260906103733 | 68 | 159 | 0.0 | 3.5 | 0.00 | 0.00 | 0.00 | 94 | 1016.5 |
| 20260906102833 | 68 | 149 | 0.0 | 4.3 | 0.00 | 0.00 | 0.00 | 94 | 1016.4 |
| 20260906101933 | 68 | 165 | 0.0 | 4.3 | 0.00 | 0.00 | 0.00 | 94 | 1016.4 |
| 20260906100133 | 68 | 0 | 0.0 | 0.0 | 0.00 | 0.00 | 0.00 | 94 | 1016.4 |
| 20260906095233 | 68 | 154 | 0.0 | 1.7 | 0.00 | 0.00 | 0.00 | 94 | 1016.2 |
| 20260906094333 | 68 | 154 | 0.0 | 0.9 | 0.00 | 0.00 | 0.00 | 94 | 1016.2 |
| 20260906093433 | 69 | 154 | 0.0 | 0.9 | 0.00 | 0.00 | 0.00 | 94 | 1016.3 |
| 20260906091633 | 69 | 0 | 0.0 | 0.0 | 0.00 | 0.00 | 0.00 | 94 | 1015.9 |
| 20260906090733 | 69 | 0 | 0.0 | 0.0 | 0.00 | 0.00 | 0.00 | 93 | 1016.0 |
| 20260906085833 | 69 | 0 | 0.0 | 0.0 | 0.00 | 0.00 | 0.00 | 93 | 1015.9 |
| 20260906084933 | 69 | 0 | 0.0 | 0.0 | 0.00 | 0.00 | 0.00 | 93 | 1015.9 |
| 20260906084033 | 69 | 0 | 0.0 | 0.0 | 0.00 | 0.00 | 0.00 | 93 | 1015.9 |
| 20260906083133 | 69 | 0 | 0.0 | 0.0 | 0.00 | 0.00 | 0.00 | 93 | 1015.9 |
| 20260906082233 | 70 | 0 | 0.0 | 0.0 | 0.00 | 0.00 | 0.00 | 93 | 1015.7 |
| 20260906081333 | 70 | 154 | 0.0 | 0.9 | 0.00 | 0.00 | 0.00 | 93 | 1015.6 |
| 20260906080433 | 70 | 155 | 0.0 | 4.3 | 0.00 | 0.00 | 0.00 | 93 | 1015.6 |
| 20260906075533 | 70 | 121 | 0.0 | 1.7 | 0.00 | 0.00 | 0.00 | 93 | 1015.5 |
| 20260906074633 | 70 | 122 | 0.0 | 1.7 | 0.00 | 0.00 | 0.00 | 93 | 1015.5 |
| 20260906073733 | 70 | 124 | 0.9 | 1.7 | 0.00 | 0.00 | 0.00 | 92 | 1015.5 |
| 20260906071932 | 71 | 130 | 0.0 | 0.9 | 0.00 | 0.00 | 0.00 | 92 | 1015.6 |
| 20260906071032 | 71 | 137 | 0.0 | 2.6 | 0.00 | 0.00 | 0.00 | 92 | 1015.7 |
| 20260906070132 | 71 | 154 | 0.0 | 1.7 | 0.00 | 0.00 | 0.00 | 92 | 1015.9 |
| 20260906065233 | 71 | 141 | 0.0 | 1.7 | 0.00 | 0.00 | 0.00 | 92 | 1015.9 |
| 20260906064332 | 71 | 125 | 0.0 | 1.7 | 0.00 | 0.00 | 0.00 | 92 | 1016.0 |
| 20260906063433 | 71 | 0 | 0.0 | 0.0 | 0.00 | 0.00 | 0.00 | 92 | 1016.1 |
| 20260906062532 | 71 | 120 | 0.0 | 0.9 | 0.00 | 0.00 | 0.00 | 92 | 1016.1 |
| 20260906055832 | 71 | 145 | 0.0 | 1.7 | 0.00 | 0.00 | 0.00 | 91 | 1016.1 |
| 20260906054932 | 71 | 126 | 0.0 | 2.6 | 0.00 | 0.00 | 0.00 | 91 | 1016.0 |
| 20260906054032 | 71 | 145 | 0.0 | 2.6 | 0.00 | 0.00 | 0.00 | 92 | 1016.0 |
| 20260906053132 | 71 | 142 | 0.0 | 3.5 | 0.00 | 0.00 | 0.00 | 91 | 1016.0 |
| 20260906052232 | 71 | 137 | 0.0 | 2.6 | 0.00 | 0.00 | 0.00 | 91 | 1016.0 |
| 20260906051332 | 72 | 138 | 0.9 | 2.6 | 0.00 | 0.00 | 0.00 | 91 | 1016.0 |
| 20260906050432 | 72 | 143 | 0.0 | 1.7 | 0.00 | 0.00 | 0.00 | 91 | 1016.0 |
| 20260906045532 | 72 | 131 | 0.0 | 2.6 | 0.00 | 0.00 | 0.00 | 90 | 1016.1 |
| 20260906044632 | 72 | 149 | 0.0 | 0.9 | 0.00 | 0.00 | 0.00 | 90 | 1016.2 |
| 20260906043732 | 72 | 150 | 0.0 | 1.7 | 0.00 | 0.00 | 0.00 | 90 | 1016.3 |
| 20260906041932 | 73 | 120 | 0.0 | 2.6 | 0.00 | 0.00 | 0.00 | 90 | 1016.4 |
| 20260906041032 | 73 | 0 | 0.0 | 0.0 | 0.00 | 0.00 | 0.00 | 90 | 1016.3 |
| 20260906035232 | 73 | 139 | 0.9 | 3.5 | 0.00 | 0.00 | 0.00 | 90 | 1016.2 |
| 20260906034332 | 74 | 134 | 0.0 | 3.5 | 0.00 | 0.00 | 0.00 | 89 | 1016.4 |
| 20260906033432 | 74 | 150 | 0.9 | 3.5 | 0.00 | 0.00 | 0.00 | 89 | 1016.3 |
| 20260906032532 | 74 | 171 | 0.0 | 2.6 | 0.00 | 0.00 | 0.00 | 89 | 1016.3 |
| 20260906031632 | 74 | 156 | 0.0 | 2.6 | 0.00 | 0.00 | 0.00 | 89 | 1016.2 |
| 20260906030732 | 74 | 147 | 0.0 | 3.5 | 0.00 | 0.00 | 0.00 | 89 | 1016.4 |
| 20260906025832 | 74 | 148 | 0.0 | 1.7 | 0.00 | 0.00 | 0.00 | 88 | 1016.4 |
| 20260906024932 | 74 | 173 | 0.0 | 1.7 | 0.00 | 0.00 | 0.00 | 88 | 1016.4 |
| 20260906023132 | 74 | 178 | 0.0 | 0.9 | 0.00 | 0.00 | 0.00 | 87 | 1016.3 |
| 20260906021332 | 75 | 0 | 0.0 | 0.0 | 0.00 | 0.00 | 0.00 | 85 | 1016.2 |
| 20260906020432 | 75 | 0 | 0.0 | 0.0 | 0.00 | 0.00 | 0.00 | 85 | 1016.1 |
| 20260906015531 | 75 | 0 | 0.0 | 0.0 | 0.00 | 0.00 | 0.00 | 84 | 1015.8 |
| 20260906014631 | 75 | 178 | 0.0 | 0.9 | 0.00 | 0.00 | 0.00 | 84 | 1015.5 |
| 20260906013731 | 76 | 178 | 0.0 | 1.7 | 0.00 | 0.00 | 0.00 | 83 | 1015.1 |
| 20260906012832 | 76 | 178 | 0.0 | 2.6 | 0.00 | 0.00 | 0.00 | 82 | 1014.8 |
| 20260906011932 | 76 | 182 | 0.0 | 2.6 | 0.00 | 0.00 | 0.00 | 82 | 1014.5 |
| 20260906011031 | 77 | 175 | 0.9 | 2.6 | 0.00 | 0.00 | 0.00 | 80 | 1014.4 |
| 20260906010131 | 78 | 156 | 0.0 | 1.7 | 0.00 | 0.00 | 0.00 | 79 | 1014.2 |
| 20260906005231 | 78 | 171 | 0.9 | 4.3 | 0.00 | 0.00 | 0.00 | 78 | 1014.1 |
| 20260906003431 | 80 | 175 | 1.7 | 5.2 | 0.00 | 0.00 | 0.00 | 74 | 1013.9 |
| 20260906001631 | 83 | 177 | 0.9 | 6.1 | 0.00 | 0.00 | 0.00 | 69 | 1013.8 |
| 20260905235831 | 84 | 175 | 0.0 | 2.6 | 0.00 | 0.00 | 0.00 | 67 | 1013.9 |
| 20260905234931 | 85 | 173 | 0.0 | 2.6 | 0.00 | 0.00 | 0.00 | 64 | 1013.9 |
| 20260905233131 | 86 | 95 | 0.0 | 3.5 | 0.00 | 0.00 | 0.00 | 65 | 1013.8 |
| 20260905232231 | 86 | 107 | 0.0 | 3.5 | 0.00 | 0.00 | 0.00 | 64 | 1013.7 |
| 20260905230431 | 86 | 67 | 0.9 | 4.3 | 0.00 | 0.00 | 0.00 | 64 | 1013.8 |
| 20260905225531 | 86 | 89 | 0.9 | 3.5 | 0.00 | 0.00 | 0.00 | 65 | 1013.7 |
| 20260905223731 | 86 | 72 | 0.9 | 4.3 | 0.00 | 0.00 | 0.00 | 64 | 1013.5 |
| 20260905222831 | 86 | 63 | 1.7 | 6.1 | 0.00 | 0.00 | 0.00 | 65 | 1013.5 |
| 20260905221931 | 86 | 62 | 1.7 | 6.1 | 0.00 | 0.00 | 0.00 | 65 | 1013.3 |
| 20260905220131 | 86 | 87 | 1.7 | 7.8 | 0.00 | 0.00 | 0.00 | 65 | 1013.3 |
| 20260905215231 | 86 | 88 | 1.7 | 7.8 | 0.00 | 0.00 | 0.00 | 65 | 1013.4 |
| 20260905214331 | 85 | 100 | 1.7 | 7.0 | 0.00 | 0.00 | 0.00 | 65 | 1013.1 |
| 20260905213431 | 85 | 68 | 2.6 | 10.4 | 0.00 | 0.00 | 0.00 | 68 | 1013.2 |
| 20260905212531 | 85 | 54 | 2.6 | 10.4 | 0.00 | 0.00 | 0.00 | 68 | 1013.3 |
| 20260905211631 | 84 | 58 | 2.6 | 7.0 | 0.00 | 0.00 | 0.00 | 71 | 1013.4 |
| 20260905210731 | 84 | 57 | 2.6 | 8.7 | 0.00 | 0.00 | 0.00 | 71 | 1013.6 |
| 20260905204931 | 83 | 40 | 3.5 | 9.6 | 0.00 | 0.00 | 0.00 | 74 | 1013.9 |
| 20260905204030 | 83 | 39 | 4.3 | 9.6 | 0.00 | 0.00 | 0.00 | 74 | 1014.1 |
| 20260905203130 | 83 | 46 | 1.7 | 8.7 | 0.00 | 0.00 | 0.00 | 74 | 1014.4 |
| 20260905202230 | 82 | 43 | 2.6 | 8.7 | 0.00 | 0.00 | 0.00 | 77 | 1014.5 |
| 20260905200431 | 81 | 42 | 2.6 | 9.6 | 0.00 | 0.00 | 0.00 | 79 | 1014.7 |
| 20260905195531 | 80 | 33 | 3.5 | 9.6 | 0.00 | 0.00 | 0.00 | 80 | 1014.9 |
| 20260905194630 | 80 | 51 | 2.6 | 7.8 | 0.00 | 0.00 | 0.00 | 81 | 1015.2 |
| 20260905192830 | 79 | 35 | 3.5 | 7.8 | 0.00 | 0.00 | 0.00 | 81 | 1015.1 |
| 20260905190130 | 78 | 26 | 1.7 | 6.1 | 0.00 | 0.00 | 0.00 | 83 | 1015.5 |
| 20260905185234 | 77 | 53 | 2.6 | 9.6 | 0.00 | 0.00 | 0.00 | 84 | 1015.5 |
| 20260905184330 | 77 | 51 | 3.5 | 9.6 | 0.00 | 0.00 | 0.00 | 85 | 1015.3 |
| 20260905181630 | 74 | 90 | 0.9 | 5.2 | 0.00 | 0.00 | 0.00 | 92 | 1015.8 |
| 20260905180730 | 72 | 127 | 0.9 | 2.6 | 0.00 | 0.00 | 0.00 | 93 | 1016.2 |
| 20260905175830 | 71 | 151 | 0.9 | 2.6 | 0.00 | 0.00 | 0.00 | 93 | 1016.5 |
| 20260905174930 | 71 | 137 | 0.9 | 5.2 | 0.00 | 0.00 | 0.00 | 94 | 1016.7 |
| 20260905174030 | 70 | 149 | 1.7 | 5.2 | 0.00 | 0.00 | 0.00 | 95 | 1016.8 |